Back to catalog

CZ-6A DEB

AliveSSO
NORAD 54474·DEBRIS·🇨🇳 China

Launched Nov 11, 2022 from Taiyuan Satellite Launch Center

Loading…

Next Passes (next 24 hours)

TLE

FreshSource: Space-Track

Epoch: Sep 14, 2026, 02:49 UTC

1 54474U 22151HA  26257.11757198  .00000586  00000-0  46334-3 0  9998
2 54474  98.9304 216.6774 0137901 218.4801 140.6464 13.91071624194482

Track CZ-6A DEB in real time with AllMySat

Download on the App Store